Location: Newark
(38.0892°N, 27.7378°E)
Time: 06:31:07
(UTC+00:00)

N. Korean satellite - Pass Details

Date: 14 December 2019
Orbit: 454 x 507 km, 97.2° (Epoch: 27 January)

Event Time Altitude Azimuth Distance (km) Brightness Sun altitude
Rises 15:26:03 0° 176° (S) 2,596 10.5 -7.2°
Reaches altitude 10° 15:28:09 10° 180° (S) 1,713 9.7 -7.6°
Maximum altitude 15:31:48 58° 260° (W) 590 7.4 -8.2°
Drops below altitude 10° 15:35:27 10° 340° (NNW) 1,711 9.3 -8.9°
Sets 15:37:33 0° 345° (NNW) 2,592 10.2 -9.3°
